TimeICT,TemperatureF,Dew PointF,Humidity,Sea Level PressureIn,VisibilityMPH,Wind Direction,Wind SpeedMPH,Gust SpeedMPH,PrecipitationIn,Events,Conditions,WindDirDegrees,DateUTC
12:00 AM,80.6,73.4,79,29.83,5.6,East,4.6,-,N/A,,Mostly Cloudy,80,2011-12-08 17:00:00
12:30 AM,80.6,73.4,79,29.80,5.6,East,3.5,-,N/A,,Mostly Cloudy,80,2011-12-08 17:30:00
1:00 AM,81,73,71,29.84,6,East,11.5,,,,Scattered Clouds,90,2011-12-08 18:00:00
1:00 AM,80.6,73.4,79,29.80,5.6,East,4.6,-,N/A,,Mostly Cloudy,80,2011-12-08 18:00:00
1:30 AM,80.6,73.4,79,29.80,5.6,East,6.9,-,N/A,,Mostly Cloudy,90,2011-12-08 18:30:00
2:00 AM,80.6,73.4,79,29.80,5.6,Calm,Calm,-,N/A,,Mostly Cloudy,0,2011-12-08 19:00:00
2:30 AM,80.6,73.4,79,29.77,5.6,NE,6.9,-,N/A,,Mostly Cloudy,40,2011-12-08 19:30:00
3:00 AM,78.8,73.4,83,29.77,5.6,Calm,Calm,-,N/A,,Mostly Cloudy,0,2011-12-08 20:00:00
3:30 AM,78.8,73.4,83,29.77,5.6,Calm,Calm,-,N/A,,Mostly Cloudy,0,2011-12-08 20:30:00
4:00 AM,78.8,73.4,83,29.77,5.6,Calm,Calm,-,N/A,,Mostly Cloudy,0,2011-12-08 21:00:00
4:30 AM,78.8,73.4,83,29.77,5.6,East,3.5,-,N/A,,Mostly Cloudy,80,2011-12-08 21:30:00
5:00 AM,78.8,73.4,83,29.77,5.6,East,3.5,-,N/A,,Mostly Cloudy,80,2011-12-08 22:00:00
5:30 AM,78.8,73.4,83,29.77,5.6,East,3.5,-,N/A,,Mostly Cloudy,80,2011-12-08 22:30:00
6:00 AM,78.8,73.4,83,29.80,5.6,East,4.6,-,N/A,,Mostly Cloudy,80,2011-12-08 23:00:00
6:30 AM,78.8,73.4,83,29.80,5.6,East,4.6,-,N/A,,Mostly Cloudy,80,2011-12-08 23:30:00
7:00 AM,80,74,79,29.78,6,East,6.9,,,,Scattered Clouds,90,2011-12-09 00:00:00
7:00 AM,78.8,73.4,83,29.80,5.6,East,4.6,-,N/A,,Mostly Cloudy,80,2011-12-09 00:00:00
7:30 AM,78.8,73.4,83,29.83,5.6,ENE,4.6,-,N/A,,Mostly Cloudy,70,2011-12-09 00:30:00
8:00 AM,80.6,73.4,79,29.83,5.6,East,6.9,-,N/A,,Mostly Cloudy,80,2011-12-09 01:00:00
8:30 AM,80.6,73.4,79,29.83,5.6,East,9.2,-,N/A,,Mostly Cloudy,80,2011-12-09 01:30:00
9:00 AM,80.6,73.4,79,29.83,5.6,ENE,9.2,-,N/A,,Mostly Cloudy,70,2011-12-09 02:00:00
9:30 AM,82.4,73.4,74,29.86,5.6,East,9.2,-,N/A,,Mostly Cloudy,80,2011-12-09 02:30:00
10:00 AM,82.4,73.4,74,29.86,-9999.0,North,-9999.0,-,N/A,,Mostly Cloudy,0,2011-12-09 03:00:00
10:05 AM,82.4,73.4,74,29.86,-9999.0,North,-9999.0,-,N/A,,Mostly Cloudy,0,2011-12-09 03:05:00
10:30 AM,84.2,73.4,70,29.86,5.6,East,11.5,-,N/A,,Mostly Cloudy,80,2011-12-09 03:30:00
11:00 AM,84.2,73.4,70,29.86,5.6,East,8.1,-,N/A,,Mostly Cloudy,80,2011-12-09 04:00:00
11:30 AM,86.0,75.2,70,29.86,5.6,East,9.2,-,N/A,,Mostly Cloudy,100,2011-12-09 04:30:00
12:00 PM,87.8,73.4,62,29.83,5.6,East,10.4,-,N/A,,Mostly Cloudy,100,2011-12-09 05:00:00
12:30 PM,86.0,73.4,66,29.83,5.6,East,8.1,-,N/A,,Mostly Cloudy,100,2011-12-09 05:30:00
1:00 PM,86,75,62,29.82,6,SE,11.5,,,,Scattered Clouds,140,2011-12-09 06:00:00
1:00 PM,86.0,73.4,66,29.80,5.6,East,8.1,-,N/A,,Mostly Cloudy,100,2011-12-09 06:00:00
1:30 PM,87.8,73.4,62,29.80,5.6,East,9.2,-,N/A,,Mostly Cloudy,90,2011-12-09 06:30:00
2:00 PM,87.8,73.4,62,29.77,5.6,East,9.2,-,N/A,,Mostly Cloudy,100,2011-12-09 07:00:00
2:30 PM,87.8,73.4,62,29.77,5.6,ESE,8.1,-,N/A,,Mostly Cloudy,110,2011-12-09 07:30:00
3:00 PM,87.8,73.4,62,29.74,5.6,East,10.4,-,N/A,,Mostly Cloudy,100,2011-12-09 08:00:00
3:30 PM,87.8,73.4,62,29.74,5.6,NE,8.1,-,N/A,,Mostly Cloudy,50,2011-12-09 08:30:00
4:00 PM,86.0,71.6,62,29.74,5.6,NNE,6.9,-,N/A,,Mostly Cloudy,30,2011-12-09 09:00:00
4:30 PM,84.2,71.6,66,29.74,5.6,NE,5.8,-,N/A,,Mostly Cloudy,50,2011-12-09 09:30:00
5:00 PM,84.2,71.6,66,29.77,5.6,NE,4.6,-,N/A,,Mostly Cloudy,40,2011-12-09 10:00:00
5:30 PM,82.4,73.4,74,29.74,5.6,Variable,2.3,-,N/A,,Mostly Cloudy,0,2011-12-09 10:30:00
6:00 PM,-9999,-9999,N/A,-9999,5.6,ENE,9.2,-,N/A,,Mostly Cloudy,70,2011-12-09 11:00:00
6:30 PM,82.4,73.4,74,29.77,5.6,NE,4.6,-,N/A,,Mostly Cloudy,50,2011-12-09 11:30:00
7:00 PM,82,74,72,29.76,6,ENE,5.8,,,,Scattered Clouds,70,2011-12-09 12:00:00
7:00 PM,82.4,73.4,74,29.80,5.0,ENE,5.8,-,N/A,,Mostly Cloudy,60,2011-12-09 12:00:00
7:30 PM,82.4,73.4,74,29.80,5.0,ENE,8.1,-,N/A,,Mostly Cloudy,70,2011-12-09 12:30:00
8:00 PM,80.6,73.4,79,29.80,5.0,East,5.8,-,N/A,,Mostly Cloudy,80,2011-12-09 13:00:00
8:30 PM,80.6,73.4,79,29.83,5.0,ENE,3.5,-,N/A,,Mostly Cloudy,60,2011-12-09 13:30:00
9:00 PM,80.6,73.4,79,29.83,5.0,ENE,3.5,-,N/A,,Mostly Cloudy,70,2011-12-09 14:00:00
9:30 PM,80.6,73.4,79,29.83,5.0,NE,4.6,-,N/A,,Mostly Cloudy,50,2011-12-09 14:30:00
10:00 PM,80.6,73.4,79,29.83,5.0,NE,4.6,-,N/A,,Mostly Cloudy,50,2011-12-09 15:00:00
10:30 PM,78.8,73.4,83,29.83,5.0,ENE,5.8,-,N/A,,Mostly Cloudy,70,2011-12-09 15:30:00
11:00 PM,78.8,73.4,83,29.83,5.0,ENE,4.6,-,N/A,,Mostly Cloudy,70,2011-12-09 16:00:00
11:30 PM,78.8,73.4,83,29.83,5.0,ENE,3.5,-,N/A,,Mostly Cloudy,60,2011-12-09 16:30:00